FDX1411 KMEM-KIAH

Flight info

Callsign FDX1411
Flight time 1h 11m
Altitude 38000
Route CHLDR5 ANSWA LITTR Q33 SWEUP DOOBI3
Aircraft MD11/H-SDE1E2E3FGHIJ2J3J4J5M1RWXY/LB1D1

Departure

Time 2026-05-04 17:23
Airport Memphis International Airport (KMEM)

Arrival

Time 2026-05-04 18:34
Airport George Bush Intercontinental Airport (KIAH)
Time Latitude Longitude Altitude Speed Heading
2026-05-04 17:01 35.06108 -89.98182 338 ft 0 kts 91°
2026-05-04 17:10 35.06119 -89.98238 333 ft 4 kts 133°
2026-05-04 17:10 35.06157 -89.98258 333 ft 0 kts 182°
2026-05-04 17:15 35.06076 -89.98260 335 ft 10 kts 178°
2026-05-04 17:16 35.06016 -89.98123 338 ft 10 kts 89°
2026-05-04 17:16 35.06008 -89.97853 338 ft 11 kts 92°
2026-05-04 17:17 35.05998 -89.97756 336 ft 13 kts 100°
2026-05-04 17:17 35.05902 -89.97507 334 ft 10 kts 156°
2026-05-04 17:18 35.05826 -89.97486 336 ft 12 kts 175°
2026-05-04 17:18 35.05671 -89.97488 335 ft 11 kts 180°
2026-05-04 17:19 35.05549 -89.97487 334 ft 7 kts 179°
2026-05-04 17:19 35.05503 -89.97499 332 ft 0 kts 205°
2026-05-04 17:21 35.05487 -89.97513 331 ft 10 kts 219°
2026-05-04 17:21 35.05399 -89.97616 328 ft 8 kts 195°
2026-05-04 17:22 35.05368 -89.97618 330 ft 0 kts 180°
2026-05-04 17:23 35.04781 -89.97604 327 ft 126 kts 179°
2026-05-04 17:23 35.03645 -89.97567 550 ft 184 kts 182°
2026-05-04 17:23 35.01141 -89.97522 2943 ft 179 kts 189°
2026-05-04 17:24 34.99977 -89.97809 4058 ft 172 kts 207°
2026-05-04 17:24 34.96033 -90.00420 5698 ft 244 kts 221°
2026-05-04 17:25 34.94886 -90.01979 6818 ft 251 kts 236°
2026-05-04 17:25 34.94073 -90.06186 8937 ft 265 kts 267°
2026-05-04 17:26 34.94072 -90.10835 10347 ft 298 kts 266°
2026-05-04 17:26 34.93611 -90.19319 12194 ft 350 kts 264°
2026-05-04 17:27 34.93247 -90.25320 14001 ft 361 kts 264°
2026-05-04 17:27 34.92901 -90.31504 15057 ft 368 kts 265°
2026-05-04 17:28 34.92551 -90.37756 16569 ft 372 kts 265°
2026-05-04 17:29 34.92008 -90.47318 18807 ft 382 kts 265°
2026-05-04 17:29 34.91448 -90.57037 20799 ft 388 kts 266°
2026-05-04 17:30 34.90867 -90.66951 22841 ft 395 kts 266°
2026-05-04 17:31 34.90372 -90.73657 24124 ft 400 kts 263°
2026-05-04 17:31 34.88878 -90.83800 25871 ft 411 kts 261°
2026-05-04 17:32 34.87795 -90.90688 27020 ft 418 kts 262°
2026-05-04 17:33 34.86165 -91.01243 28696 ft 428 kts 262°
2026-05-04 17:33 34.85614 -91.04823 29250 ft 432 kts 262°
2026-05-04 17:34 34.83931 -91.15724 30662 ft 440 kts 263°
2026-05-04 17:34 34.83363 -91.19374 31228 ft 438 kts 263°
2026-05-04 17:35 34.81678 -91.30151 33041 ft 426 kts 265°
2026-05-04 17:35 34.80576 -91.37173 34174 ft 419 kts 265°
2026-05-04 17:35 34.80031 -91.40640 34633 ft 416 kts 266°
2026-05-04 17:36 34.79488 -91.44082 35055 ft 413 kts 266°
2026-05-04 17:36 34.78950 -91.47499 35472 ft 410 kts 266°
2026-05-04 17:36 34.78413 -91.50895 35877 ft 408 kts 266°
2026-05-04 17:36 34.77879 -91.54269 36269 ft 405 kts 267°
2026-05-04 17:37 34.77347 -91.57611 36716 ft 401 kts 268°
2026-05-04 17:37 34.76820 -91.60929 37109 ft 398 kts 268°
2026-05-04 17:37 34.76296 -91.64220 37497 ft 395 kts 268°
2026-05-04 17:37 34.75774 -91.67489 37864 ft 393 kts 268°
2026-05-04 17:38 34.75255 -91.70756 37973 ft 393 kts 268°
2026-05-04 17:38 34.74218 -91.77262 37996 ft 395 kts 268°
2026-05-04 17:39 34.72665 -91.87086 38006 ft 396 kts 268°
2026-05-04 17:39 34.71644 -91.93652 37979 ft 394 kts 268°
2026-05-04 17:40 34.70456 -92.00172 37995 ft 399 kts 263°
2026-05-04 17:40 34.68275 -92.06494 37998 ft 416 kts 252°
2026-05-04 17:41 34.66679 -92.09479 37998 ft 427 kts 245°
2026-05-04 17:41 34.64748 -92.12277 37998 ft 438 kts 239°
2026-05-04 17:41 34.62495 -92.14835 37998 ft 450 kts 232°
2026-05-04 17:41 34.59930 -92.17100 37997 ft 463 kts 225°
2026-05-04 17:42 34.57064 -92.19013 37998 ft 477 kts 218°
2026-05-04 17:42 34.53928 -92.20503 37996 ft 492 kts 210°
2026-05-04 17:42 34.50569 -92.21530 37999 ft 504 kts 204°
2026-05-04 17:42 34.47093 -92.22260 37994 ft 509 kts 201°
2026-05-04 17:43 34.40047 -92.23434 37995 ft 512 kts 200°
2026-05-04 17:43 34.32999 -92.24644 38005 ft 511 kts 201°
2026-05-04 17:44 34.25981 -92.25943 38004 ft 510 kts 201°
2026-05-04 17:44 34.18972 -92.27270 37971 ft 509 kts 201°
2026-05-04 17:45 34.11953 -92.28592 38006 ft 512 kts 202°
2026-05-04 17:45 34.04910 -92.29909 38006 ft 513 kts 202°
2026-05-04 17:46 33.97860 -92.31221 38006 ft 513 kts 202°
2026-05-04 17:46 33.90807 -92.32532 37989 ft 512 kts 202°
2026-05-04 17:47 33.83759 -92.33843 38010 ft 513 kts 202°
2026-05-04 17:47 33.76700 -92.35152 38015 ft 513 kts 202°
2026-05-04 17:48 33.69648 -92.36457 38014 ft 513 kts 202°
2026-05-04 17:48 33.62597 -92.37761 38004 ft 513 kts 202°
2026-05-04 17:49 33.55546 -92.39065 38021 ft 513 kts 202°
2026-05-04 17:49 33.48492 -92.40364 38020 ft 512 kts 202°
2026-05-04 17:50 33.41454 -92.41658 38014 ft 512 kts 202°
2026-05-04 17:50 33.34409 -92.42948 38021 ft 512 kts 202°
2026-05-04 17:51 33.27376 -92.44235 38036 ft 511 kts 202°
2026-05-04 17:51 33.20401 -92.45512 38036 ft 511 kts 202°
2026-05-04 17:52 33.13376 -92.46798 38032 ft 511 kts 202°
2026-05-04 17:52 33.06349 -92.48083 38029 ft 512 kts 202°
2026-05-04 17:53 32.99317 -92.49365 38035 ft 511 kts 202°
2026-05-04 17:53 32.92297 -92.50642 38033 ft 511 kts 202°
2026-05-04 17:54 32.85263 -92.51920 38011 ft 511 kts 202°
2026-05-04 17:54 32.79412 -92.52982 38043 ft 512 kts 202°
2026-05-04 17:55 32.72370 -92.54258 38044 ft 512 kts 202°
2026-05-04 17:55 32.65331 -92.55531 38045 ft 512 kts 202°
2026-05-04 17:56 32.58290 -92.56807 37996 ft 512 kts 201°
2026-05-04 17:56 32.51251 -92.58084 38045 ft 512 kts 201°
2026-05-04 17:57 32.44214 -92.59360 38045 ft 512 kts 201°
2026-05-04 17:57 32.37173 -92.60634 38047 ft 512 kts 201°
2026-05-04 17:58 32.30133 -92.61906 38032 ft 511 kts 201°
2026-05-04 17:58 32.23097 -92.63175 38053 ft 511 kts 201°
2026-05-04 17:59 32.16065 -92.64442 38052 ft 511 kts 201°
2026-05-04 18:00 32.05512 -92.66340 38052 ft 511 kts 201°
2026-05-04 18:00 31.98624 -92.67959 38041 ft 491 kts 212°
2026-05-04 18:00 31.95545 -92.69464 38053 ft 468 kts 223°
2026-05-04 18:01 31.92878 -92.71489 38058 ft 446 kts 233°
2026-05-04 18:01 31.90617 -92.73900 38058 ft 433 kts 239°
2026-05-04 18:01 31.88548 -92.76455 38053 ft 430 kts 241°
2026-05-04 18:02 31.82314 -92.84120 38057 ft 435 kts 239°
2026-05-04 18:02 31.77992 -92.89104 38063 ft 436 kts 238°
2026-05-04 18:03 31.73614 -92.94061 38062 ft 438 kts 238°
2026-05-04 18:03 31.69226 -92.99013 38062 ft 438 kts 238°
2026-05-04 18:04 31.64831 -93.03968 38056 ft 438 kts 238°
2026-05-04 18:05 31.58246 -93.11385 38046 ft 437 kts 238°
2026-05-04 18:05 31.53875 -93.16301 38047 ft 437 kts 238°
2026-05-04 18:06 31.47323 -93.23659 38007 ft 437 kts 237°
2026-05-04 18:06 31.42915 -93.28604 38046 ft 439 kts 237°
2026-05-04 18:07 31.38494 -93.33551 38045 ft 440 kts 237°
2026-05-04 18:07 31.34069 -93.38495 38046 ft 440 kts 237°
2026-05-04 18:08 31.29631 -93.43429 37892 ft 441 kts 237°
2026-05-04 18:08 31.27410 -93.45893 37693 ft 440 kts 237°
2026-05-04 18:08 31.25233 -93.48313 37347 ft 442 kts 237°
2026-05-04 18:09 31.20746 -93.53305 36401 ft 443 kts 237°
2026-05-04 18:09 31.16305 -93.58246 35382 ft 446 kts 236°
2026-05-04 18:10 31.14053 -93.60749 34874 ft 448 kts 236°
2026-05-04 18:10 31.11801 -93.63248 34382 ft 446 kts 236°
2026-05-04 18:10 31.09557 -93.65729 33852 ft 442 kts 236°
2026-05-04 18:10 31.07334 -93.68185 33310 ft 438 kts 236°
2026-05-04 18:11 31.05130 -93.70620 32787 ft 435 kts 236°
2026-05-04 18:11 31.02944 -93.73037 32266 ft 431 kts 236°
2026-05-04 18:11 31.00775 -93.75435 31748 ft 431 kts 236°
2026-05-04 18:11 30.98587 -93.77869 31233 ft 437 kts 236°
2026-05-04 18:12 30.96387 -93.80307 30692 ft 435 kts 236°
2026-05-04 18:12 30.94199 -93.82721 30114 ft 432 kts 236°
2026-05-04 18:12 30.92025 -93.85112 29515 ft 427 kts 236°
2026-05-04 18:12 30.89875 -93.87477 28915 ft 424 kts 235°
2026-05-04 18:13 30.87740 -93.89827 28379 ft 420 kts 235°
2026-05-04 18:13 30.85619 -93.92155 27840 ft 418 kts 234°
2026-05-04 18:13 30.81421 -93.96750 26715 ft 411 kts 234°
2026-05-04 18:14 30.79349 -93.99018 26163 ft 408 kts 233°
2026-05-04 18:14 30.77290 -94.01273 25612 ft 405 kts 233°
2026-05-04 18:14 30.75247 -94.03512 25054 ft 402 kts 232°
2026-05-04 18:15 30.71235 -94.07897 24080 ft 386 kts 232°
2026-05-04 18:15 30.67387 -94.12100 23666 ft 380 kts 232°
2026-05-04 18:15 30.65465 -94.14207 23403 ft 380 kts 232°
2026-05-04 18:16 30.63543 -94.16296 22943 ft 379 kts 231°
2026-05-04 18:16 30.61593 -94.18352 22322 ft 377 kts 230°
2026-05-04 18:16 30.59648 -94.20369 21682 ft 373 kts 229°
2026-05-04 18:17 30.55797 -94.24340 20484 ft 367 kts 229°
2026-05-04 18:17 30.53896 -94.26301 19889 ft 365 kts 229°
2026-05-04 18:17 30.50136 -94.30184 18707 ft 359 kts 228°
2026-05-04 18:18 30.48281 -94.32100 18108 ft 356 kts 228°
2026-05-04 18:18 30.46442 -94.33996 17610 ft 351 kts 228°
2026-05-04 18:18 30.44618 -94.35878 17319 ft 351 kts 228°
2026-05-04 18:18 30.42799 -94.37754 17217 ft 350 kts 228°
2026-05-04 18:19 30.39128 -94.41468 16977 ft 350 kts 226°
2026-05-04 18:19 30.37256 -94.43270 16832 ft 350 kts 226°
2026-05-04 18:19 30.35372 -94.45065 16668 ft 350 kts 226°
2026-05-04 18:20 30.33489 -94.46857 16196 ft 352 kts 226°
2026-05-04 18:20 30.31611 -94.48642 15525 ft 347 kts 225°
2026-05-04 18:20 30.29754 -94.50405 14908 ft 344 kts 225°
2026-05-04 18:20 30.27911 -94.52156 14299 ft 341 kts 225°
2026-05-04 18:21 30.26085 -94.53893 13703 ft 339 kts 225°
2026-05-04 18:21 30.24281 -94.55607 13274 ft 331 kts 225°
2026-05-04 18:21 30.22539 -94.57256 13107 ft 316 kts 225°
2026-05-04 18:21 30.20873 -94.58812 12998 ft 301 kts 224°
2026-05-04 18:22 30.19261 -94.60262 12808 ft 289 kts 224°
2026-05-04 18:22 30.17671 -94.61684 12301 ft 289 kts 224°
2026-05-04 18:22 30.16078 -94.63108 11799 ft 290 kts 223°
2026-05-04 18:22 30.14483 -94.64533 11334 ft 290 kts 223°
2026-05-04 18:23 30.12900 -94.65943 11018 ft 284 kts 223°
2026-05-04 18:23 30.11366 -94.67304 10869 ft 273 kts 223°
2026-05-04 18:23 30.09870 -94.68634 10488 ft 272 kts 222°
2026-05-04 18:23 30.08367 -94.69974 9969 ft 278 kts 221°
2026-05-04 18:24 30.06832 -94.71343 9361 ft 282 kts 221°
2026-05-04 18:24 30.05288 -94.72720 8989 ft 279 kts 221°
2026-05-04 18:24 30.03798 -94.74074 8618 ft 264 kts 222°
2026-05-04 18:24 30.02404 -94.75365 8227 ft 250 kts 225°
2026-05-04 18:25 30.01283 -94.76801 8028 ft 240 kts 240°
2026-05-04 18:25 30.00550 -94.78498 8021 ft 238 kts 249°
2026-05-04 18:25 29.99939 -94.80273 8018 ft 237 kts 251°
2026-05-04 18:25 29.99501 -94.82086 8006 ft 235 kts 264°
2026-05-04 18:26 29.99395 -94.83980 7982 ft 236 kts 269°
2026-05-04 18:26 29.99367 -94.85867 7920 ft 236 kts 270°
2026-05-04 18:26 29.99363 -94.87750 7877 ft 229 kts 270°
2026-05-04 18:26 29.99361 -94.89567 7853 ft 226 kts 270°
2026-05-04 18:27 29.99360 -94.91361 7579 ft 217 kts 270°
2026-05-04 18:27 29.99358 -94.93126 7225 ft 221 kts 270°
2026-05-04 18:27 29.99357 -94.94884 6832 ft 218 kts 270°
2026-05-04 18:27 29.99357 -94.96639 6456 ft 219 kts 269°
2026-05-04 18:28 29.99356 -94.98389 6063 ft 214 kts 268°
2026-05-04 18:28 29.99357 -95.00034 5696 ft 208 kts 267°
2026-05-04 18:28 29.99356 -95.01698 5337 ft 207 kts 266°
2026-05-04 18:28 29.99353 -95.03369 5041 ft 210 kts 266°
2026-05-04 18:29 29.99352 -95.05050 4743 ft 210 kts 266°
2026-05-04 18:29 29.99350 -95.06741 4455 ft 210 kts 266°
2026-05-04 18:29 29.99349 -95.08422 4156 ft 209 kts 266°
2026-05-04 18:29 29.99348 -95.10099 3857 ft 210 kts 266°
2026-05-04 18:30 29.99347 -95.13426 3318 ft 207 kts 266°
2026-05-04 18:30 29.99346 -95.15085 3023 ft 206 kts 266°
2026-05-04 18:30 29.99349 -95.16639 2739 ft 187 kts 266°
2026-05-04 18:31 29.99349 -95.18110 2503 ft 175 kts 266°
2026-05-04 18:31 29.99351 -95.19439 2249 ft 160 kts 265°
2026-05-04 18:31 29.99348 -95.20709 2057 ft 158 kts 264°
2026-05-04 18:31 29.99344 -95.21978 1913 ft 159 kts 264°
2026-05-04 18:32 29.99343 -95.23263 1730 ft 160 kts 263°
2026-05-04 18:32 29.99342 -95.24528 1442 ft 155 kts 265°
2026-05-04 18:32 29.99342 -95.25768 1230 ft 154 kts 263°
2026-05-04 18:32 29.99341 -95.27002 1041 ft 154 kts 264°
2026-05-04 18:33 29.99338 -95.28266 786 ft 161 kts 264°
2026-05-04 18:33 29.99331 -95.29556 655 ft 163 kts 266°
2026-05-04 18:33 29.99341 -95.30848 407 ft 160 kts 265°
2026-05-04 18:33 29.99343 -95.32154 225 ft 166 kts 265°
2026-05-04 18:34 29.99346 -95.33449 115 ft 148 kts 265°
2026-05-04 18:34 29.99343 -95.34413 112 ft 92 kts 270°
2026-05-04 18:34 29.99342 -95.34941 115 ft 50 kts 270°
2026-05-04 18:34 29.99341 -95.35235 116 ft 19 kts 262°
2026-05-04 18:35 29.99281 -95.35280 112 ft 8 kts 184°
2026-05-04 18:35 29.99252 -95.35280 114 ft 3 kts 180°
2026-05-04 18:35 29.99222 -95.35279 114 ft 7 kts 178°
2026-05-04 18:35 29.99143 -95.35277 113 ft 15 kts 176°
2026-05-04 18:36 29.99048 -95.35277 113 ft 12 kts 180°
2026-05-04 18:36 29.98961 -95.35277 113 ft 14 kts 180°
2026-05-04 18:36 29.98870 -95.35277 112 ft 12 kts 179°
2026-05-04 18:36 29.98781 -95.35277 113 ft 15 kts 180°
2026-05-04 18:37 29.98676 -95.35277 113 ft 14 kts 180°
2026-05-04 18:37 29.98581 -95.35277 114 ft 13 kts 180°
2026-05-04 18:37 29.98496 -95.35269 111 ft 11 kts 163°
2026-05-04 18:37 29.98427 -95.35231 113 ft 10 kts 152°
2026-05-04 18:38 29.98361 -95.35189 111 ft 12 kts 149°
2026-05-04 18:38 29.98292 -95.35143 112 ft 11 kts 150°
2026-05-04 18:38 29.98232 -95.35104 111 ft 9 kts 150°
2026-05-04 18:38 29.98181 -95.35069 112 ft 8 kts 150°
2026-05-04 18:39 29.98138 -95.35041 111 ft 7 kts 151°
2026-05-04 18:39 29.98093 -95.35014 111 ft 8 kts 153°
2026-05-04 18:39 29.98019 -95.34971 113 ft 15 kts 153°
2026-05-04 18:39 29.97931 -95.34919 113 ft 14 kts 152°
2026-05-04 18:40 29.97877 -95.34885 113 ft 13 kts 151°
2026-05-04 18:40 29.97804 -95.34841 111 ft 11 kts 152°
2026-05-04 18:40 29.97723 -95.34785 113 ft 7 kts 134°
2026-05-04 18:40 29.97716 -95.34749 111 ft 8 kts 88°
2026-05-04 18:41 29.97742 -95.34689 111 ft 8 kts 60°
2026-05-04 18:41 29.97759 -95.34616 115 ft 10 kts 83°
2026-05-04 18:41 29.97779 -95.34582 112 ft 3 kts 24°
2026-05-04 18:41 29.97811 -95.34582 113 ft 5 kts 359°
2026-05-04 18:42 29.97839 -95.34582 114 ft 0 kts 360°